Regional Weather Roundup
Issued by NWS

Home | Current Version | Previous Version | Graphics & Text | Print | Product List | Glossary On
Versions: 1 2 3 4 5 6 7 8 9 10 11 12 13 14 15 16 17 18 19 20 21 22 23 24 25 26 27 28 29 30 31 32 33 34 35 36 37 38 39 40 41 42 43 44 45 46 47 48 49 50
000
ASUS45 KBOU 190910
RWRCO

WEATHER ROUNDUP FOR COLORADO
NATIONAL WEATHER SERVICE DENVER/BOULDER CO
300 AM MDT THU APR 19 2018

NOTE: "FAIR" INDICATES FEW OR NO CLOUDS BELOW 12000 FEET WITH NO
SIGNIFICANT WEATHER AND/OR OBSTRUCTIONS TO VISIBILITY.

COZ001>005-013-030-031-191000-
...NORTHWEST COLORADO...

CITY           SKY/WX    TMP DP  RH WIND       PRES   REMARKS
CRAIG          FAIR      27  22  81 CALM      30.10F
HAYDEN         FAIR      34  17  50 E12       30.12F WCI  25
MEEKER         FAIR      28  20  71 E5        30.10F WCI  23
RANGELY        FAIR      30  18  60 E6        30.08S WCI  24
RABBIT EARS PA FAIR      27   5  39 S7        30.21S WCI  19
STEAMBOAT SPGS FAIR      29  16  58 CALM      30.13F
WALDEN         FAIR      23   9  54 E5        30.18S WCI  17
$$

COZ006>008-011-191000-
...WEST CENTRAL VALLEYS...

CITY           SKY/WX    TMP DP  RH WIND       PRES   REMARKS
GRAND JUNCTION FAIR      40  13  33 SE9       30.05F
MONTROSE       FAIR      33  11  39 SE7       30.10F WCI  27
EAGLE          FAIR      27  19  72 E5        30.19S WCI  22
RIFLE          FAIR      34  22  61 CALM      30.10F
DELTA          FAIR      38   7  27 CALM      30.09F
NUCLA          FAIR      36   1  23 CALM      30.11S
$$

COZ017>023-064>068-191000-
...SOUTHWEST COLORADO...

CITY           SKY/WX    TMP DP  RH WIND       PRES   REMARKS
DURANGO        FAIR      28   0  29 NE5       30.17F WCI  23
CORTEZ         FAIR      52  -4  10 SE18      30.08F
PAGOSA SPRINGS FAIR      31   2  29 CALM      30.23F
TELLURIDE      FAIR      41   0  17 SE7       30.20F
WOLF CREEK PAS FAIR      25   1  36 S22G31    30.34F WCI  10
$$

COZ009-010-012-014-032>034-037-058>063-191000-
...CENTRAL COLORADO...

CITY           SKY/WX    TMP DP  RH WIND       PRES   REMARKS
ASPEN          FAIR      43   3  19 SE12      30.14S
BUENA VISTA    FAIR      21   2  45 CALM      30.28S
COPPER MTN     NOT AVBL
BERTHOUD PASS  FAIR      21  10  63 SW25G32   30.25F WCI   4
COTTONWOOD PAS FAIR      32   1  27 CALM      30.29S
GUNNISON       FAIR      25  11  55 E3        30.21F
GRANBY         FAIR      21  12  66 CALM      30.20S
KREMMLING      FAIR      27  18  69 CALM      30.19S
LEADVILLE      FAIR      20   5  52 NE7       30.25S WCI  11
MONARCH PASS   FAIR      28  -6  22 S17       30.41F WCI  16
SALIDA         FAIR      31   4  31 W7        30.35S WCI  24
SUNLIGHT       FAIR      27   7  43 S10G20    30.26S WCI  17
WILKERSON PASS CLOUDY    21  -4  33 SW10      30.31F WCI  10
$$

COZ069>075-191000-
...SAN LUIS VALLEY/SANGRE DE CRISTO MOUNTAINS...

CITY           SKY/WX    TMP DP  RH WIND       PRES   REMARKS
ALAMOSA        FAIR      28   9  44 SE13      30.23F WCI  17
DEL NORTE      FAIR      26   0  32 W8        30.25S WCI  17
LA VETA PASS   FAIR      32   5  32 SW13G23   30.38F WCI  22
SAGUACHE       NOT AVBL
$$

COZ035-036-038>040-191000-
...NORTHERN COLORADO FRONT RANGE...

CITY           SKY/WX    TMP DP  RH WIND       PRES   REMARKS
DENVER INTL AP FAIR      33  15  47 S15       30.25F WCI  23
AURORA         CLEAR     35  14  42 S13       30.26F WCI  26
FRONT RANGE AP FAIR      35  17  47 S9G16     30.27S WCI  28
ERIE MUNI ARPT FAIR      30  16  56 CALM      30.30F
BOULDER MUN AP FAIR      36  18  48 CALM      30.24F
CENTENNIAL     FAIR      32  15  49 SE12      30.26S WCI  23
BROOMFIELD     FAIR      41  12  30 CALM      30.25F
FORT COLLINS   FAIR      33  18  53 E9        30.27F WCI  25
LONGMONT       FAIR      36  18  48 CALM      30.27F
$$

COZ041-046-047-076>085-087-088-191000-
...PIKES PEAK/PALMER DIVIDE AND SOUTHERN FOOTHILLS...

CITY           SKY/WX    TMP DP  RH WIND       PRES   REMARKS
COLO. SPRINGS  FAIR      36  13  38 S5        30.30F
A. F. ACADEMY  FAIR      35  10  35 SE13      30.28F WCI  26
SCHRIEVER AFB  NOT AVBL
CHEYENNE MTN   FAIR      36  12  37 S15G22    30.24F
ELLICOTT         N/A    N/A N/A N/A SE3       30.28F
FALCON         FAIR      28  11  48 S6        30.30F WCI  22
FORT CARSON    FAIR      36  12  37 SW5       30.28F
LIMON          FAIR      17  14  88 N3        30.29F
MONUMENT HILL  FAIR      28  12  50 S6        30.29F WCI  22
CANON CITY     FAIR      36  12  38 SW3       30.28S
WALSENBURG     NOT AVBL
TRINIDAD       FAIR      41   6  23 S7G20     30.25F
$$

COZ042>045-048>051-090-091-191000-
...NORTHEAST COLORADO...

CITY           SKY/WX    TMP DP  RH WIND       PRES   REMARKS
GREELEY ARPT   FAIR      27  15  61 N8        30.28F WCI  19
AKRON          FAIR      31  21  66 E8        30.29S WCI  23
BURLINGTON     FAIR      30  22  72 S9        30.32S WCI  22
WRAY           FAIR      32  27  80 S7        30.34R WCI  26
YUMA           FAIR      27  19  74 S7        30.30S WCI  19
STERLING       FAIR      30  25  80 CALM      30.29S
HOLYOKE        FAIR      32  28  86 SE7       30.33R WCI  26
FORT MORGAN    FAIR      29  16  57 NE3       30.30R
$$

COZ086-089-092>099-191000-
...SOUTHEAST COLORADO...

CITY           SKY/WX    TMP DP  RH WIND       PRES   REMARKS
PUEBLO         FAIR      39  13  34 E9        30.26F
LA JUNTA       FAIR      34  12  40 E8        30.28F WCI  27
LAMAR          FAIR      26  16  65 CALM      30.30R
SPRINGFIELD      N/A     24   8  50 CALM      30.30F
$$



USA.gov is the U.S. government's official web portal to all federal, state and local government web resources and services.